SCOUT A DEB, 2226

Orbit data source: Space-Track

SCOUT A DEB, 2226 is space debris in LEO originally from a launch on Wed, 22 Dec 1965 UTC launched from the Air Force Western Test Range (AFWTR). Debris objects in space refer to the collection of defunct objects orbiting the Earth. Examples of debris include non-operational satellites, rocket bodies, and fragments generated from explosions, collisions, or faulty payload assembly.

Loading next visibility...
Identifier
2226, 1965-109D
Orbit
LEO
Country
Flag of USUS
Related business
Manufacturer
Unknown
Mission
Spacecraft
Bus & Motor
Unknown
Mass
Unknown
Launch date (UTC)
1965-12-22 (60 years ago)
Launch vehicle
Unknown
Launch site
Air Force Western Test Range (AFWTR)
Object type
Payload
Rocket body
Debris
Shape & HBR
Unknown shape, 0.1 m
Radar Cross Section
Small (<0.1 m²)

Expand to show TLE details & history
Last TLE update: 2 days ago

TLE from 2 days ago
0 SCOUT A DEB
1  2226U 65109D   25345.90567615  .00000210  00000-0  25550-3 0  9994
2  2226  89.0598 324.7100 0245747 225.3828 132.7048 13.51222444928393
Epoch: 2025-12-11T21:44Z
TLE epoch observation values (Epoch: 2025-12-11T21:44:10.419Z)
Latitude
0.00004°
Longitude
-82.18835°
Altitude
1,197.213 km
Speed
7.193 km/s
True Right ascension
21h 38m 50s
True Declination
0° 00' 00"
Sunlit
Object was in daylight at epoch
Visualization orbit readout
Latitude
Unknown
Longitude
Unknown
Altitude
Unknown
Speed
Unknown
Apparent Right ascension
Unknown
Apparent Declination
Unknown
Sunlit
N/A
Visualization observer readout
Local Sidereal Time
01:28:32
Azimuth
Unknown
Elevation
Unknown
Doppler factor
Unknown
Orbital elements
Apogee altitude
1,247.72 km
Perigee altitude
881.904 km
Semi-major axis
7,442.949 km
Eccentricity
0.02457
Inclination
89.0598°
RAAN
324.71°
Arg. of periapsis
225.3828°
True anomaly
134.73151°
Mean anomaly
132.7048°
Eccentric anomaly
133.72238°
Mean motion
3.38007 °/min
Orbital period
106.51 mins
BSTAR
0.0002555
Loading maneuver chart data...
Computing Atmospheric mass density...
Loading historical data...
Loading historical data...
Loading historical data...
Loading historical data...
Loading historical data...
Loading historical data...
Loading historical data...

Documentation

Showing up to 5 results
|